SCP
-0 -0 -0 -0 -0 -0 -0 -0 -0 -0 -0 -0 -0 -0 -0 -0 -0 -0 -0 -0 -0 -0 -0 -0 -0 0 0 0 0 0 0 0 -0 0 0 0 0 0 0 0 0 0 0 0 0 0 0
-0 -0 -0 -0 -0 -0 -0 -0 -0 -0 -0 -0 -0 -0 -0 -0 -0 -0 -0 -0 -0 0 0 0 0 -0 0 -0 0 0 0 0 0 0 0 0 0 0 0 0 0 0 0 0 0 0 0
-0 -0 -0 -0 -0 -0 -0 -0 -0 -0 -0 -0 -0 -0 -0 -0 -0 -0 -0 -0 -0 -0 -0 0 -0 0 0 0 0 0 0 0 0 0 0 0 0 0 0 0 0 0 0 0 0 0 0
-0 -0 -0 -0 -0 -0 -0 -0 -0 -0 -0 -0 -0 -0 -0 -0 -0 -0 0 -0 -0 -0 -0 -0 -0 0 0 0 0 0 0 0 0 0 0 0 0 0 0 0 0 0 0 0 0 0 0
-0 -0 -0 -0 -0 -0 -0 -0 -0 -0 -0 -0 -0 -0 -0 -0 -0 -0 -0 -0 -0 -0 0 -0 0 0 -0 -0 0 0 0 0 0 0 0 0 0 0 0 0 0 0 0 0 0 0 0
-0 -0 -0 -0 -0 -0 -0 -0 -0 -0 -0 -0 -0 -0 -0 -0 -0 -0 -0 0 0 0 -0 0 0 0 -0 0 -0 0 0 0 0 0 0 0 0 0 0 0 0 0 0 0 0 0 -0
-0 -0 -0 -0 -0 -0 -0 -0 -0 -0 -0 -0 -0 -0 -0 0 -0 -0 -0 0 0 0 0 0 -0 0 0 0 -0 0 0 0 0 0 0 0 0 0 0 0 0 0 0 0 0 0 0
-0 -0 -0 -0 -0 -0 -0 -0 -0 -0 -0 -0 -0 -0 -0 -0 0 0 0 0 0 0 0 -0 -0 -0 0 0 -0 -0 0 -0 -0 0 0 0 0 0 0 0 0 0 0 0 0 0 0
-0 -0 -0 -0 -0 -0 -0 -0 -0 -0 -0 -0 -0 -0 -0 -0 0 0 0 0 0 0 0 -0 0 -0 0 0 -0 0 0 -0 0 0 0 0 0 0 0 0 0 -0 -0 -0 -0 0 0
-0 -0 -0 -0 -0 -0 -0 -0 -0 -0 -0 -0 -0 -0 0 0 0 0 0 0 0 0 0 -0 -0 0 0 0 0 0 0 -0 0 0 0 0 0 0 -0 0 0 -0 0 0 0 0 0
-0 -0 -0 -0 -0 -0 -0 -0 -0 -0 -0 -0 -0 0 0 0 0 0 0 -0 -0 0 0 0 0 0 0 0 0 0 0 0 0 0 0 0 0 0 0 -0 0 0 0 0 0 0 0
-0 -0 -0 -0 -0 -0 -0 -0 -0 -0 -0 -0 0 0 0 0 0 0 0 0 0 0 0 0 0 0 0 0 0 0 0 0 0 0 0 0 0 0 0 0 0 0 0 -0 0 0 -0
-0 -0 -0 -0 -0 -0 -0 -0 -0 -0 -0 -0 -0 -0 0 0 0 0 0 0 0 0 0 0 0 0 0 0 0 0 0 0 -0 0 0 0 0 0 0 0 0 0 0 0 0 0 0
-0 -0 -0 -0 -0 -0 -0 -0 -0 -0 -0 -0 0 0 -0 0 0 0 0 0 0 0 0 0 0 0 0 0 0 0 0 0 0 0 0 0 0 0 0 0 0 0 0 0 0 0 0
-0 -0 -0 -0 -0 -0 -0 -0 -0 -0 -0 -0 0 0 0 0 0 0 0 0 0 0 0 0 0 0 0 0 0 0 0 0 0 0 0 0 0 0 0 0 0 0 0 0 0 0 0
-0 -0 -0 -0 -0 -0 -0 -0 -0 -0 -0 0 0 0 -0 0 0 0 0 0 0 0 0 0 0 0 0 0 0 0 0 0 0 0 0 0 0 0 0 0 0 0 0 0 0 0 0
-0 -0 -0 -0 -0 -0 -0 -0 -0 -0 -0 0 0 0 0 0 0 0 0 0 0 0 0 0 0 0 0 0 0 0 0 0 0 0 0 0 0 0 0 0 0 0 0 0 0 0 0
-0 -0 -0 -0 -0 -0 -0 -0 -0 -0 -0 0 0 0 0 0 0 0 0 0 0 0 0 0 0 0 0 0 0 0 0 0 0 0 0 0 0 0 0 0 0 0 0 0 0 0 -0
-0 -0 -0 -0 -0 -0 -0 -0 -0 -0 -0 0 0 0 0 0 0 0 0 0 0 0 0 0 0 0 0 0 0 0 0 0 0 0 0 0 0 0 0 0 0 0 0 0 0 0 -0
-0 -0 -0 -0 -0 -0 -0 -0 -0 -0 -0 0 0 0 0 0 0 0 0 0 0 0 0 0 0 0 0 0 0 0 0 0 0 0 0 0 0 0 0 0 0 0 0 0 0 0 -0
-0 -0 -0 -0 -0 -0 -0 -0 -0 -0 -0 0 0 0 0 0 0 0 0 0 0 0 0 0 0 0 0 0 0 0 0 0 0 0 0 0 0 0 0 0 0 0 0 0 0 0 0
-0 -0 -0 -0 -0 -0 -0 -0 -0 -0 -0 -0 -0 0 0 0 -0 0 0 0 0 0 0 0 0 0 0 0 0 0 0 0 0 0 0 0 0 0 0 0 0 0 0 0 0 0 0
-0 -0 -0 -0 -0 -0 -0 -0 -0 -0 -0 -0 -0 0 0 -0 -0 0 0 0 0 0 0 0 0 0 0 0 0 0 0 0 0 0 0 0 0 0 0 0 0 0 0 0 0 0 0
0 -0 -0 -0 -0 -0 -0 -0 -0 -0 -0 0 0 0 0 0 0 0 0 0 0 0 0 0 0 0 0 0 0 0 0 0 0 0 0 0 0 0 0 0 0 0 0 0 0 0 0
0 0 -0 -0 -0 -0 -0 -0 -0 -0 -0 0 0 0 0 0 0 0 0 0 0 0 0 0 0 0 0 0 0 0 0 0 0 0 0 0 0 0 0 0 0 0 0 0 0 0 0
0 0 0 0 -0 -0 -0 -0 -0 -0 -0 -0 0 0 0 0 0 0 0 0 0 0 0 0 0 0 0 0 0 0 0 0 0 0 0 0 0 0 0 0 0 0 0 0 0 0 0
0 0 0 0 0 -0 -0 -0 -0 -0 -0 -0 0 0 0 0 0 0 0 0 0 0 0 0 0 0 0 0 0 0 0 0 0 0 0 0 0 0 0 0 0 0 0 0 0 0 0
0 0 0 0 0 -0 -0 -0 -0 -0 -0 0 -0 0 0 0 0 0 0 0 0 0 0 0 0 0 0 0 0 0 0 0 0 0 0 0 0 0 0 0 0 0 0 0 0 0 0
0 0 0 0 0 0 0 0 -0 -0 -0 0 0 0 0 0 0 0 0 0 0 0 0 0 0 0 0 0 0 0 0 0 0 0 0 0 0 0 0 0 0 0 0 0 0 0 0
Wind_Speed_500mb
35 36 37 37 35 33 29 26 23 25 26 25 22 19 17 14 13 16 18 19 23 23 20 20 25 29 16 52 40 61 47 41 39 22 22 25 30 11 7 3 11 3 5 18 20 19 36
36 37 38 38 37 34 29 26 24 24 24 23 20 16 15 13 11 10 10 10 12 14 13 14 22 49 44 52 51 52 46 38 35 23 19 25 16 14 4 5 5 8 11 9 24 29 34
33 35 36 36 35 33 29 26 24 24 26 26 24 17 17 14 10 13 16 14 12 14 19 15 12 6 80 48 52 51 46 35 41 20 18 22 29 58 18 9 24 12 6 6 30 37 10
35 36 37 37 36 33 27 24 24 25 27 25 23 16 15 13 13 19 16 17 22 21 16 18 19 27 28 52 50 59 45 40 29 26 28 30 20 27 39 23 12 13 12 12 11 33 20
34 36 38 38 38 36 30 25 25 28 28 25 22 15 17 14 23 23 17 13 19 39 49 27 16 12 17 39 79 63 52 53 27 41 41 20 29 39 60 11 12 20 11 14 15 31 11
34 36 38 39 39 38 31 25 22 29 30 26 23 15 18 9 15 19 28 30 18 6 6 12 42 12 33 53 63 70 43 61 38 11 16 52 28 16 31 29 8 13 12 14 14 19 14
35 38 40 42 42 40 33 27 23 28 31 27 22 17 18 15 9 10 23 22 8 24 63 49 36 33 7 24 41 77 61 58 55 48 12 45 25 21 16 14 5 10 13 22 9 11 16
35 38 40 42 43 43 36 29 26 29 32 29 22 14 14 16 13 4 7 7 16 21 20 35 45 51 16 21 51 78 52 27 37 25 5 14 26 11 9 19 22 20 26 28 15 24 18
35 37 40 42 43 44 38 29 26 30 32 30 23 19 10 10 16 10 14 21 30 19 12 14 28 53 19 27 41 67 54 21 21 26 29 19 6 21 22 18 27 16 18 20 29 30 22
35 37 39 41 42 42 39 29 22 26 27 31 27 23 19 12 9 14 15 21 20 9 10 21 22 21 53 14 18 69 40 18 15 10 5 16 11 19 11 19 21 24 16 31 35 18 8
36 37 39 41 41 40 38 33 24 14 22 24 25 23 21 25 11 13 11 18 15 2 9 18 12 13 35 30 13 51 41 37 11 10 12 4 12 13 14 22 22 19 34 38 41 31 13
37 37 39 40 41 40 38 34 27 17 13 19 25 25 24 15 20 14 14 18 9 11 6 11 9 12 15 24 10 17 45 24 27 6 16 9 11 9 5 41 8 20 24 35 2 5 6
38 38 39 40 41 41 39 35 29 19 6 9 24 26 27 24 19 9 12 11 10 13 9 14 9 11 8 13 10 13 12 33 13 11 15 11 3 18 22 17 19 42 24 11 9 3 8
37 38 38 38 40 41 41 38 32 23 12 7 5 31 27 26 17 8 11 10 17 3 5 6 9 3 9 15 8 14 7 10 14 8 5 12 12 16 33 7 12 23 8 5 12 10 7
36 37 37 38 39 42 43 40 33 25 14 9 7 9 33 22 18 8 4 14 10 2 6 11 3 10 10 11 10 10 10 7 10 13 9 12 8 8 16 22 7 18 13 19 9 13 8
35 36 37 38 40 43 46 44 34 27 16 9 6 2 41 18 18 7 14 11 4 6 6 6 7 9 11 11 12 9 7 7 10 12 5 5 9 6 13 15 9 5 12 10 9 10 5
34 36 38 39 41 44 47 46 37 26 16 11 5 5 33 9 14 26 9 7 6 12 4 7 5 7 6 7 7 5 6 3 4 11 7 4 4 15 7 8 7 12 11 6 4 7 6
32 35 37 39 41 44 48 46 38 26 15 8 9 8 30 13 17 12 5 8 9 9 16 12 9 5 3 6 5 4 3 3 10 5 7 3 5 7 6 8 6 3 5 8 5 9 6
30 33 36 39 41 44 48 46 38 26 17 9 13 13 40 7 8 4 8 10 12 8 11 6 7 7 7 5 4 2 1 6 8 10 4 2 3 7 11 6 11 8 14 11 5 6 3
27 31 35 38 40 43 47 46 39 26 16 9 8 6 24 42 30 14 10 6 7 13 9 12 7 6 8 6 5 4 3 3 14 4 13 4 4 11 9 14 6 5 11 12 6 5 4
25 28 32 35 38 41 45 45 39 26 14 7 10 8 7 3 13 17 9 5 5 4 6 10 5 7 2 4 6 1 3 7 4 1 6 5 5 7 10 12 3 8 8 5 4 9 8
24 25 28 32 35 39 43 43 40 30 16 13 10 11 16 11 7 10 8 3 5 5 3 2 5 2 4 4 7 6 4 4 8 2 7 3 7 4 12 13 8 15 11 10 7 5 9
23 23 25 27 31 35 40 42 40 36 19 21 29 27 10 5 4 6 2 7 6 12 4 5 4 3 5 9 14 25 30 26 15 3 3 4 3 5 8 6 8 9 16 10 8 9 10
23 22 21 23 26 30 35 39 40 38 34 22 21 12 7 1 4 5 10 6 5 7 7 7 3 0 2 24 26 6 8 20 21 27 21 4 3 2 5 6 6 13 3 8 13 14 14
25 23 20 18 20 24 29 33 35 34 30 20 13 7 6 4 8 10 14 8 7 4 4 9 6 7 19 13 5 6 5 4 2 5 10 20 1 5 2 3 10 6 7 9 10 18 17
22 24 20 16 15 18 22 26 28 28 26 20 14 12 8 22 9 12 9 7 6 3 1 6 9 8 8 7 5 5 2 2 4 6 9 8 3 6 2 1 7 9 10 2 10 15 9
20 22 20 15 14 14 17 20 23 23 23 22 18 9 5 8 14 15 7 8 9 6 4 4 3 1 4 4 5 3 3 1 3 4 3 5 2 5 2 7 14 7 5 9 2 11 14
23 19 19 16 12 12 14 16 19 19 20 19 19 11 3 4 17 14 13 9 10 8 7 8 4 2 5 6 5 5 4 2 3 5 5 5 5 4 1 5 12 10 6 7 16 27 35
21 18 19 17 13 11 12 13 15 17 20 20 18 13 5 3 8 14 13 12 9 6 9 11 2 5 6 7 1 3 2 1 4 5 2 5 11 7 14 10 14 27 29 38 39 36 43
Wind_Direction_500mb
34 32 29 25 23 23 24 27 27 24 24 24 27 33 41 57 76 70 65 70 76 83 78 66 43 30 64 58 10 358 8 3 11 24 41 35 36 36 41 359 345 95 339 330 8 44 36
32 30 28 25 23 23 27 30 29 27 25 25 29 37 45 57 68 60 53 65 80 81 68 65 64 50 66 53 8 4 13 10 13 32 45 34 28 7 53 31 91 301 303 4 36 55 59
36 32 29 27 25 23 24 25 27 27 23 23 25 36 44 51 66 70 74 72 63 68 60 57 52 16 45 24 14 10 23 25 29 40 62 44 66 51 351 5 339 310 338 25 30 3 28
37 33 30 27 26 26 30 33 33 30 25 26 30 47 42 54 79 105 89 87 84 64 37 58 74 70 78 19 20 19 19 35 52 51 82 72 83 43 21 319 19 24 43 8 44 26 343
38 35 32 29 26 24 27 33 36 32 27 27 32 53 41 90 97 90 80 103 91 96 67 54 64 60 46 1 27 25 27 22 81 78 74 100 48 51 22 30 24 28 320 340 330 36 349
38 37 34 32 30 27 28 31 33 25 25 25 26 40 41 87 134 98 96 100 93 120 4 46 46 72 39 31 15 20 32 28 37 71 44 42 54 58 34 41 20 315 326 319 304 346 19
38 37 35 33 31 29 30 34 34 25 24 28 30 43 48 57 166 165 142 119 88 59 71 72 50 37 52 18 2 23 21 36 53 56 72 45 59 60 45 41 313 307 302 300 273 29 21
38 36 35 33 32 30 32 38 39 29 26 29 33 46 52 52 52 65 186 188 118 123 85 71 52 42 67 12 24 21 27 52 44 47 56 47 58 75 59 22 13 357 320 310 291 351 351
36 35 33 32 31 32 33 37 38 34 34 32 36 37 37 37 35 53 96 129 130 123 90 54 55 36 19 21 44 14 19 23 62 55 61 86 352 67 39 3 349 340 290 319 294 319 289
34 33 32 29 30 30 32 33 35 35 36 36 37 34 33 14 26 56 89 137 135 114 80 339 5 24 22 112 56 24 34 20 51 50 101 89 21 49 23 6 356 325 299 297 282 297 261
33 31 30 28 27 26 28 27 25 28 32 36 36 33 31 38 51 67 97 153 151 73 60 326 22 21 42 74 325 15 29 57 70 49 59 13 19 16 13 333 327 265 301 290 280 271 263
32 29 28 27 26 24 21 23 19 21 31 40 30 26 26 41 46 69 109 137 145 46 50 352 29 16 32 45 57 43 33 57 42 47 34 63 29 19 322 320 292 284 305 301 234 115 232
28 26 24 25 24 23 18 16 15 13 3 21 16 21 24 35 32 61 142 143 41 84 350 335 346 356 54 354 44 31 39 44 43 11 33 338 352 348 357 337 327 353 360 342 347 53 50
24 22 20 19 19 17 16 11 8 6 358 341 31 33 18 25 25 66 141 64 70 348 319 334 354 22 58 3 33 24 53 39 11 32 45 30 344 1 338 11 284 313 330 286 312 348 33
21 18 16 15 13 10 9 9 1 358 349 350 313 330 16 28 32 68 134 54 167 275 288 335 350 42 358 2 33 64 53 45 19 14 52 5 286 323 340 350 39 307 357 289 269 83 74
20 15 14 12 11 7 5 6 3 357 357 343 343 317 11 21 27 76 73 114 107 3 350 62 67 34 12 336 25 33 36 324 353 20 39 7 302 327 317 11 359 261 289 356 339 355 57
15 12 12 11 9 6 5 4 7 3 4 10 35 110 5 29 42 62 93 100 117 29 99 52 62 46 8 11 15 34 6 281 313 327 27 71 96 309 26 9 326 347 350 346 198 27 354
11 10 9 11 9 8 6 5 8 12 15 22 51 53 0 30 47 46 72 109 112 28 48 60 86 75 12 14 31 57 87 105 10 330 357 254 170 302 255 190 71 27 293 319 74 344 12
5 8 9 10 11 9 8 8 10 18 33 80 82 50 25 98 101 25 73 63 72 50 31 56 52 43 17 28 11 55 164 203 354 349 41 348 0 328 328 21 9 23 330 332 141 85 304
5 3 8 9 11 11 10 11 12 18 33 71 98 43 38 60 82 106 111 63 105 56 62 71 51 86 27 26 33 331 322 291 321 280 42 118 173 165 216 245 213 325 320 340 102 76 242
1 3 6 9 11 13 14 15 15 21 29 66 67 76 63 1 24 89 89 93 107 72 85 56 57 70 7 321 326 323 298 317 297 319 36 84 272 198 240 232 183 197 256 316 88 203 143
357 1 4 7 9 14 18 21 20 21 32 77 96 124 88 86 85 71 21 97 123 130 109 65 115 195 182 208 207 267 210 231 254 337 25 10 276 210 276 198 170 246 236 245 217 209 284
353 357 1 6 9 14 20 23 28 35 50 82 98 112 130 43 77 84 217 159 149 145 90 135 161 156 228 243 267 275 262 251 253 234 340 293 265 296 285 151 252 293 239 208 234 203 168
358 357 357 2 8 14 21 24 29 38 56 78 103 104 97 348 92 150 144 115 135 192 169 184 161 273 265 308 304 294 246 257 255 255 224 267 273 240 310 56 11 245 265 191 197 257 215
1 4 4 1 6 12 21 26 28 33 45 50 73 88 112 109 131 113 126 119 127 110 124 190 199 270 310 326 40 27 353 26 201 167 186 212 253 316 101 227 270 270 226 189 174 278 235
352 3 6 4 5 10 18 25 28 32 35 38 51 71 93 127 227 146 146 163 170 174 121 194 240 288 338 63 62 108 232 267 311 327 155 158 138 128 38 38 261 248 344 197 127 292 288
337 356 6 6 7 7 14 20 26 29 30 35 39 49 74 105 158 163 168 174 157 155 164 252 277 307 38 71 74 125 252 153 241 252 225 286 315 197 158 223 288 259 290 80 279 251 305
328 349 359 2 5 1 9 12 18 23 27 29 28 33 40 129 161 185 182 168 163 186 150 161 58 292 62 67 117 224 181 274 293 247 212 214 143 243 81 39 297 211 284 179 249 298 310
311 336 350 356 359 355 355 359 5 11 19 23 25 24 36 104 156 181 189 195 197 230 222 187 207 144 146 89 358 80 209 315 192 277 190 234 183 192 178 217 237 293 263 287 274 281 293
Wind_Speed_850mb
35 36 37 37 35 33 29 26 23 25 26 25 22 19 17 14 13 16 18 19 23 23 20 20 25 29 16 52 40 61 47 41 39 22 22 25 30 11 7 3 11 3 5 18 20 19 36
36 37 38 38 37 34 29 26 24 24 24 23 20 16 15 13 11 10 10 10 12 14 13 14 22 49 44 52 51 52 46 38 35 23 19 25 16 14 4 5 5 8 11 9 24 29 34
33 35 36 36 35 33 29 26 24 24 26 26 24 17 17 14 10 13 16 14 12 14 19 15 12 6 80 48 52 51 46 35 41 20 18 22 29 58 18 9 24 12 6 6 30 37 10
35 36 37 37 36 33 27 24 24 25 27 25 23 16 15 13 13 19 16 17 22 21 16 18 19 27 28 52 50 59 45 40 29 26 28 30 20 27 39 23 12 13 12 12 11 33 20
34 36 38 38 38 36 30 25 25 28 28 25 22 15 17 14 23 23 17 13 19 39 49 27 16 12 17 39 79 63 52 53 27 41 41 20 29 39 60 11 12 20 11 14 15 31 11
34 36 38 39 39 38 31 25 22 29 30 26 23 15 18 9 15 19 28 30 18 6 6 12 42 12 33 53 63 70 43 61 38 11 16 52 28 16 31 29 8 13 12 14 14 19 14
35 38 40 42 42 40 33 27 23 28 31 27 22 17 18 15 9 10 23 22 8 24 63 49 36 33 7 24 41 77 61 58 55 48 12 45 25 21 16 14 5 10 13 22 9 11 16
35 38 40 42 43 43 36 29 26 29 32 29 22 14 14 16 13 4 7 7 16 21 20 35 45 51 16 21 51 78 52 27 37 25 5 14 26 11 9 19 22 20 26 28 15 24 18
35 37 40 42 43 44 38 29 26 30 32 30 23 19 10 10 16 10 14 21 30 19 12 14 28 53 19 27 41 67 54 21 21 26 29 19 6 21 22 18 27 16 18 20 29 30 22
35 37 39 41 42 42 39 29 22 26 27 31 27 23 19 12 9 14 15 21 20 9 10 21 22 21 53 14 18 69 40 18 15 10 5 16 11 19 11 19 21 24 16 31 35 18 8
36 37 39 41 41 40 38 33 24 14 22 24 25 23 21 25 11 13 11 18 15 2 9 18 12 13 35 30 13 51 41 37 11 10 12 4 12 13 14 22 22 19 34 38 41 31 13
37 37 39 40 41 40 38 34 27 17 13 19 25 25 24 15 20 14 14 18 9 11 6 11 9 12 15 24 10 17 45 24 27 6 16 9 11 9 5 41 8 20 24 35 2 5 6
38 38 39 40 41 41 39 35 29 19 6 9 24 26 27 24 19 9 12 11 10 13 9 14 9 11 8 13 10 13 12 33 13 11 15 11 3 18 22 17 19 42 24 11 9 3 8
37 38 38 38 40 41 41 38 32 23 12 7 5 31 27 26 17 8 11 10 17 3 5 6 9 3 9 15 8 14 7 10 14 8 5 12 12 16 33 7 12 23 8 5 12 10 7
36 37 37 38 39 42 43 40 33 25 14 9 7 9 33 22 18 8 4 14 10 2 6 11 3 10 10 11 10 10 10 7 10 13 9 12 8 8 16 22 7 18 13 19 9 13 8
35 36 37 38 40 43 46 44 34 27 16 9 6 2 41 18 18 7 14 11 4 6 6 6 7 9 11 11 12 9 7 7 10 12 5 5 9 6 13 15 9 5 12 10 9 10 5
34 36 38 39 41 44 47 46 37 26 16 11 5 5 33 9 14 26 9 7 6 12 4 7 5 7 6 7 7 5 6 3 4 11 7 4 4 15 7 8 7 12 11 6 4 7 6
32 35 37 39 41 44 48 46 38 26 15 8 9 8 30 13 17 12 5 8 9 9 16 12 9 5 3 6 5 4 3 3 10 5 7 3 5 7 6 8 6 3 5 8 5 9 6
30 33 36 39 41 44 48 46 38 26 17 9 13 13 40 7 8 4 8 10 12 8 11 6 7 7 7 5 4 2 1 6 8 10 4 2 3 7 11 6 11 8 14 11 5 6 3
27 31 35 38 40 43 47 46 39 26 16 9 8 6 24 42 30 14 10 6 7 13 9 12 7 6 8 6 5 4 3 3 14 4 13 4 4 11 9 14 6 5 11 12 6 5 4
25 28 32 35 38 41 45 45 39 26 14 7 10 8 7 3 13 17 9 5 5 4 6 10 5 7 2 4 6 1 3 7 4 1 6 5 5 7 10 12 3 8 8 5 4 9 8
24 25 28 32 35 39 43 43 40 30 16 13 10 11 16 11 7 10 8 3 5 5 3 2 5 2 4 4 7 6 4 4 8 2 7 3 7 4 12 13 8 15 11 10 7 5 9
23 23 25 27 31 35 40 42 40 36 19 21 29 27 10 5 4 6 2 7 6 12 4 5 4 3 5 9 14 25 30 26 15 3 3 4 3 5 8 6 8 9 16 10 8 9 10
23 22 21 23 26 30 35 39 40 38 34 22 21 12 7 1 4 5 10 6 5 7 7 7 3 0 2 24 26 6 8 20 21 27 21 4 3 2 5 6 6 13 3 8 13 14 14
25 23 20 18 20 24 29 33 35 34 30 20 13 7 6 4 8 10 14 8 7 4 4 9 6 7 19 13 5 6 5 4 2 5 10 20 1 5 2 3 10 6 7 9 10 18 17
22 24 20 16 15 18 22 26 28 28 26 20 14 12 8 22 9 12 9 7 6 3 1 6 9 8 8 7 5 5 2 2 4 6 9 8 3 6 2 1 7 9 10 2 10 15 9
20 22 20 15 14 14 17 20 23 23 23 22 18 9 5 8 14 15 7 8 9 6 4 4 3 1 4 4 5 3 3 1 3 4 3 5 2 5 2 7 14 7 5 9 2 11 14
23 19 19 16 12 12 14 16 19 19 20 19 19 11 3 4 17 14 13 9 10 8 7 8 4 2 5 6 5 5 4 2 3 5 5 5 5 4 1 5 12 10 6 7 16 27 35
21 18 19 17 13 11 12 13 15 17 20 20 18 13 5 3 8 14 13 12 9 6 9 11 2 5 6 7 1 3 2 1 4 5 2 5 11 7 14 10 14 27 29 38 39 36 43
Wind_Direction_850mb
34 32 29 25 23 23 24 27 27 24 24 24 27 33 41 57 76 70 65 70 76 83 78 66 43 30 64 58 10 358 8 3 11 24 41 35 36 36 41 359 345 95 339 330 8 44 36
32 30 28 25 23 23 27 30 29 27 25 25 29 37 45 57 68 60 53 65 80 81 68 65 64 50 66 53 8 4 13 10 13 32 45 34 28 7 53 31 91 301 303 4 36 55 59
36 32 29 27 25 23 24 25 27 27 23 23 25 36 44 51 66 70 74 72 63 68 60 57 52 16 45 24 14 10 23 25 29 40 62 44 66 51 351 5 339 310 338 25 30 3 28
37 33 30 27 26 26 30 33 33 30 25 26 30 47 42 54 79 105 89 87 84 64 37 58 74 70 78 19 20 19 19 35 52 51 82 72 83 43 21 319 19 24 43 8 44 26 343
38 35 32 29 26 24 27 33 36 32 27 27 32 53 41 90 97 90 80 103 91 96 67 54 64 60 46 1 27 25 27 22 81 78 74 100 48 51 22 30 24 28 320 340 330 36 349
38 37 34 32 30 27 28 31 33 25 25 25 26 40 41 87 134 98 96 100 93 120 4 46 46 72 39 31 15 20 32 28 37 71 44 42 54 58 34 41 20 315 326 319 304 346 19
38 37 35 33 31 29 30 34 34 25 24 28 30 43 48 57 166 165 142 119 88 59 71 72 50 37 52 18 2 23 21 36 53 56 72 45 59 60 45 41 313 307 302 300 273 29 21
38 36 35 33 32 30 32 38 39 29 26 29 33 46 52 52 52 65 186 188 118 123 85 71 52 42 67 12 24 21 27 52 44 47 56 47 58 75 59 22 13 357 320 310 291 351 351
36 35 33 32 31 32 33 37 38 34 34 32 36 37 37 37 35 53 96 129 130 123 90 54 55 36 19 21 44 14 19 23 62 55 61 86 352 67 39 3 349 340 290 319 294 319 289
34 33 32 29 30 30 32 33 35 35 36 36 37 34 33 14 26 56 89 137 135 114 80 339 5 24 22 112 56 24 34 20 51 50 101 89 21 49 23 6 356 325 299 297 282 297 261
33 31 30 28 27 26 28 27 25 28 32 36 36 33 31 38 51 67 97 153 151 73 60 326 22 21 42 74 325 15 29 57 70 49 59 13 19 16 13 333 327 265 301 290 280 271 263
32 29 28 27 26 24 21 23 19 21 31 40 30 26 26 41 46 69 109 137 145 46 50 352 29 16 32 45 57 43 33 57 42 47 34 63 29 19 322 320 292 284 305 301 234 115 232
28 26 24 25 24 23 18 16 15 13 3 21 16 21 24 35 32 61 142 143 41 84 350 335 346 356 54 354 44 31 39 44 43 11 33 338 352 348 357 337 327 353 360 342 347 53 50
24 22 20 19 19 17 16 11 8 6 358 341 31 33 18 25 25 66 141 64 70 348 319 334 354 22 58 3 33 24 53 39 11 32 45 30 344 1 338 11 284 313 330 286 312 348 33
21 18 16 15 13 10 9 9 1 358 349 350 313 330 16 28 32 68 134 54 167 275 288 335 350 42 358 2 33 64 53 45 19 14 52 5 286 323 340 350 39 307 357 289 269 83 74
20 15 14 12 11 7 5 6 3 357 357 343 343 317 11 21 27 76 73 114 107 3 350 62 67 34 12 336 25 33 36 324 353 20 39 7 302 327 317 11 359 261 289 356 339 355 57
15 12 12 11 9 6 5 4 7 3 4 10 35 110 5 29 42 62 93 100 117 29 99 52 62 46 8 11 15 34 6 281 313 327 27 71 96 309 26 9 326 347 350 346 198 27 354
11 10 9 11 9 8 6 5 8 12 15 22 51 53 0 30 47 46 72 109 112 28 48 60 86 75 12 14 31 57 87 105 10 330 357 254 170 302 255 190 71 27 293 319 74 344 12
5 8 9 10 11 9 8 8 10 18 33 80 82 50 25 98 101 25 73 63 72 50 31 56 52 43 17 28 11 55 164 203 354 349 41 348 0 328 328 21 9 23 330 332 141 85 304
5 3 8 9 11 11 10 11 12 18 33 71 98 43 38 60 82 106 111 63 105 56 62 71 51 86 27 26 33 331 322 291 321 280 42 118 173 165 216 245 213 325 320 340 102 76 242
1 3 6 9 11 13 14 15 15 21 29 66 67 76 63 1 24 89 89 93 107 72 85 56 57 70 7 321 326 323 298 317 297 319 36 84 272 198 240 232 183 197 256 316 88 203 143
357 1 4 7 9 14 18 21 20 21 32 77 96 124 88 86 85 71 21 97 123 130 109 65 115 195 182 208 207 267 210 231 254 337 25 10 276 210 276 198 170 246 236 245 217 209 284
353 357 1 6 9 14 20 23 28 35 50 82 98 112 130 43 77 84 217 159 149 145 90 135 161 156 228 243 267 275 262 251 253 234 340 293 265 296 285 151 252 293 239 208 234 203 168
358 357 357 2 8 14 21 24 29 38 56 78 103 104 97 348 92 150 144 115 135 192 169 184 161 273 265 308 304 294 246 257 255 255 224 267 273 240 310 56 11 245 265 191 197 257 215
1 4 4 1 6 12 21 26 28 33 45 50 73 88 112 109 131 113 126 119 127 110 124 190 199 270 310 326 40 27 353 26 201 167 186 212 253 316 101 227 270 270 226 189 174 278 235
352 3 6 4 5 10 18 25 28 32 35 38 51 71 93 127 227 146 146 163 170 174 121 194 240 288 338 63 62 108 232 267 311 327 155 158 138 128 38 38 261 248 344 197 127 292 288
337 356 6 6 7 7 14 20 26 29 30 35 39 49 74 105 158 163 168 174 157 155 164 252 277 307 38 71 74 125 252 153 241 252 225 286 315 197 158 223 288 259 290 80 279 251 305
328 349 359 2 5 1 9 12 18 23 27 29 28 33 40 129 161 185 182 168 163 186 150 161 58 292 62 67 117 224 181 274 293 247 212 214 143 243 81 39 297 211 284 179 249 298 310
311 336 350 356 359 355 355 359 5 11 19 23 25 24 36 104 156 181 189 195 197 230 222 187 207 144 146 89 358 80 209 315 192 277 190 234 183 192 178 217 237 293 263 287 274 281 293